This is the latest recevied weather packets stored in our database for station/object K6GMW. If no packets are shown the sender has not sent any weather packets the latest 10 day(s).
| Time | Temp. | Humidity | Pressure | Rain* | Wind** | Luminosity | Snow |
|---|---|---|---|---|---|---|---|
| 1777735361 | 20.56° C | 59% | 1022.3 hPa | 0 mm | - | 728 W/m² | - |
| 1777735058 | 20.56° C | 58% | 1022.4 hPa | 0 mm | - | 717 W/m² | - |
| 1777734755 | 20.56° C | 60% | 1022.1 hPa | 0 mm | - | 699 W/m² | - |
| 1777734453 | 20° C | 67% | 1022.1 hPa | 0 mm | - | 684 W/m² | - |
| 1777734150 | 19.44° C | 63% | 1022.1 hPa | 0 mm | - | 630 W/m² | - |
| 1777733846 | 19.44° C | 61% | 1022 hPa | 0 mm | - | 627 W/m² | - |
| 1777733543 | 19.44° C | 62% | 1022 hPa | 0 mm | - | 601 W/m² | - |
| 1777733239 | 20° C | 62% | 1022.1 hPa | 0 mm | - | 598 W/m² | - |
| 1777732936 | 19.44° C | 67% | 1022.1 hPa | 0 mm | - | 586 W/m² | - |
| 1777732632 | 18.89° C | 69% | 1022.2 hPa | 0 mm | - | 569 W/m² | - |
| 1777732330 | 18.89° C | 67% | 1022.2 hPa | 0 mm | - | 540 W/m² | - |
| 1777732027 | 18.89° C | 67% | 1022.2 hPa | 0 mm | - | 450 W/m² | - |
| 1777731723 | 19.44° C | 69% | 1022.1 hPa | 0 mm | - | 375 W/m² | - |
| 1777731421 | 19.44° C | 70% | 1022 hPa | 0 mm | - | 339 W/m² | - |
| 1777731119 | 18.33° C | 72% | 1022 hPa | 0 mm | - | 338 W/m² | - |
| 1777730513 | 18.33° C | 72% | 1021.8 hPa | 0 mm | - | 434 W/m² | - |
| 1777730209 | 17.78° C | 72% | 1021.7 hPa | 0 mm | - | 453 W/m² | - |
| 1777729906 | 17.78° C | 76% | 1021.5 hPa | 0 mm | - | 473 W/m² | - |
| 1777729603 | 17.78° C | 77% | 1021.6 hPa | 0 mm | - | 521 W/m² | - |
| 1777729299 | 17.22° C | 76% | 1021.6 hPa | 0 mm | - | 498 W/m² | - |
| 1777728996 | 16.67° C | 78% | 1021.2 hPa | 0 mm | - | 464 W/m² | - |
| 1777728693 | 15.56° C | 84% | 1021.5 hPa | 0 mm | - | 427 W/m² | - |
| 1777728390 | 14.44° C | 87% | 1021.4 hPa | 0 mm | - | 370 W/m² | - |
| 1777728087 | 13.89° C | 89% | 1021.4 hPa | 0 mm | - | 292 W/m² | - |
| 1777727784 | 13.89° C | 91% | 1021.4 hPa | 0 mm | - | 234 W/m² | - |
* Rain latest hour (hover to see other rain measurements)
** Current wind speed in m/s (hover to see current wind gust speed)